Voltar ao catálogo

STARLINK-11235

AtivoComunicaçõesVLEO
NORAD 60726·PAYLOAD·🇺🇸 United States

Lançado Aug 28, 2024 de Cape Canaveral Space Force Station

Loading…

Próximas Passagens (próximas 24 horas)

TLE

AtualizadoSource: CelesTrak SupGP

Época: Sep 14, 2026, 21:36 UTC

1 60726C 24152G   26257.90048611  .00057623  00000+0  47461-3 0  2570
2 60726  53.1569 263.4886 0001053  99.6021 241.3936 15.69683553    15

Acompanhe STARLINK-11235 em tempo real com AllMySat

Download on the App Store